Location: Chena
(64.8152°N, 147.9227°W)
Time: 18:52:15
(UTC+00:00)

Vanguard 3 - Visible Passes

Search period start: 28 February 2021 00:00
Search period end: 10 March 2021 00:00
Orbit: 508 x 3261 km, 33.3° (Epoch: 28 February)

Date Brightness Start Highest point End Pass type
(mag) Time Alt. Az. Time Alt. Az. Time Alt. Az.
02 Mar 10.7 04:04:24 10° SSW 04:07:08 11° SSW 04:09:39 10° S visible
05 Mar 10.9 04:44:42 10° SSW 04:45:54 10° SSW 04:47:04 10° SSW visible
07 Mar 11.0 04:24:44 10° SW 04:28:22 11° SSW 04:31:40 10° SSW visible
